Tuesday, March 31, 2015
00:13 UTC
  |  Log In   |  Register Free
Airport Search:

Big Bear City Airport
(KL35)

Big Bear City Airport Diagram
No Airport Diagram Available

FAA data valid effective March 05, 2015 - April 30, 2015 (unless otherwise noted).

 
 
 
 
 
 
 
 
 
 
 
 
 
 

Current Aviation Weather for Big Bear City Airport (KL35)

The most recent METAR observation for KL35 was updated at: 2316
METAR Summary (Translated METAR)
KL35
302255Z AUTO 28007KT 10SM CLR 18/M06 A3022 RMK AO2
KSBD
302250Z 24010KT 10SM SKC 30/03 A2994
(21.4 nm SW from KL35)
KAPV
191256Z AUTO 05004KT 10SM FEW075 SCT090 BKN110 18/18 A2996 RMK AO2 SLP144 T01830178 $
(24.8 nm NW from KL35)
TAF
No TAF information found within 50 nm of KSBD
  Airport Weather Conditions for KL35

 Current Weather at L35
64° F
Fair
West winds at 8.1 mph
L35 NOAA Radar

Pressure: 30.22 in
Humidity: 19%
Wind: West at 8.1 MPH (7 KT)
Dew Point: 21.2°F
Visibility: 10.00 mi


Airport Weather Forecast for KL35

Translated METAR and TAF for KSBD
Translated METAR for KSBD (0013 UTC 31 March 2015)
found at http://aviationweather.gov/adds/metars/
 
METAR text: KSBD 302352Z 25009KT 10SM SKC 29/02 A2994
Conditions at: KSBD (SAN BERNARDINO , CA, US) observed 2352 UTC 30 March 2015
Temperature: 29.0°C (84°F)
Dewpoint: 2.0°C (36°F) [RH = 18%]
Pressure (altimeter): 29.94 inches Hg (1014.0 mb)
Winds: from the WSW (250 degrees) at 10 MPH (9 knots; 4.7 m/s)
Visibility: 10 or more miles (16+ km)
Ceiling: at least 12,000 feet AGL
Clouds: clear skies
Weather: no significant weather observed at this time
Translated TAF for KSBD

There is no translated TAF available for this airport

Find All Airport Services Find A Hotel Find A Rental Car Find A Golf Course Find A Restaurant $100 Hamburger



FBO's on the Field
FBO Company Facility Photos Services Transportation Aviation Fuel Prices: Prices include tax
Catering Weather Repair Courtesy Rental Type 100LL JetA JetA+ MOGAS 8087
 
Big Bear Airport

This FBO has not yet been rated
FS:Epic
Last Updated: Mar-12
Login to update fuel prices
SS:
Contact Big Bear AirportMore FBO Information
 
Add another FBO Facility Photos Catering Weather Repair Courtesy Rental Type 100LL JetA JetA+ MOGAS 8087
Services Transportation Aviation Fuel Prices: Prices include tax


model-print
model-print
model-print
model-print